Home   Weather   Lubbock   Past weeks

Flag for USA Past Weather in Lubbock, Texas, USA — Yesterday and Last 2 Weeks

58 °F


Feels Like: 57 °F
Forecast: 57 / 81 °F
Wind: 7 mph from Southeast

Location: Lubbock International Airport

Current Time: Oct 28, 2016 at 1:39:06 AM

Latest Report: Oct 28, 2016 at 12:53 AM

Visibility: 10 mi

Pressure: 30.07 "Hg (26.78 "Hg at 976m altitude)

Humidity: 81%

Dew Point: 52 °F

Location of LubbockLocation

Past Weather in Lubbock — Graph


Lubbock Temperature Yesterday

Maximum temperature yesterday: 81 °F (at 4:53 PM)
Minimum temperature yesterday: 51 °F (at 7:53 AM)
Average temperature yesterday: 64 °F

High & Low Weather Summary for the Past Weeks

High94 °F (Oct 17, 3:53 PM)100% (Oct 13, 2:03 PM)30.34 "Hg (Oct 13, 2:03 PM)
Low43 °F (Oct 21, 7:53 AM)11% (Oct 17, 3:53 PM)29.56 "Hg (Oct 17, 3:53 PM)
Average66 °F58%29.99 "Hg
* Reported Oct 12 11:53 PM — Oct 27 11:53 PM, Lubbock, Weather by CustomWeather, © 2016

Note: Actual official high and low records may vary slightly from our data, if they occured in-between our weather recording intervals... More about our weather records


Lubbock Weather History for the Previous 24 Hours

Scroll right to see more
Time TempWeatherWind HumidityBarometerVisibility
11:53 PM
Thu, Oct 27
62 °FClear.7 mph73%30.10 "Hg10 mi
10:53 PM64 °FPassing clouds.8 mph68%30.13 "Hg10 mi
9:53 PM68 °FPassing clouds.7 mph57%30.13 "Hg10 mi
8:53 PM67 °FPassing clouds.8 mph55%30.13 "Hg10 mi
7:53 PM69 °FPassing clouds.6 mph49%30.12 "Hg10 mi
6:53 PM74 °FPartly sunny.7 mph40%30.10 "Hg10 mi
5:53 PM79 °FPartly sunny.8 mph31%30.08 "Hg10 mi
4:53 PM81 °FPartly sunny.12 mph30%30.09 "Hg10 mi
3:53 PM80 °FPassing clouds.9 mph29%30.10 "Hg10 mi
2:53 PM80 °FPassing clouds.7 mph30%30.11 "Hg10 mi
1:53 PM78 °FPassing clouds.7 mph42%30.15 "Hg10 mi
12:53 PM74 °FPassing clouds.7 mph57%30.19 "Hg10 mi
11:53 AM71 °FPassing clouds.7 mph66%30.21 "Hg8 mi
10:58 AM60 °FFog.No wind96%30.32 "Hg4 mi
9:53 AM57 °FFog.3 mph100%30.24 "Hg0 mi
8:53 AM52 °FFog.5 mph97%30.21 "Hg0 mi
7:53 AM51 °FFog.No wind96%30.19 "Hg1 mi
6:53 AM52 °FFog.8 mph97%30.16 "Hg6 mi
5:53 AM52 °FClear.9 mph97%30.14 "Hg7 mi
4:53 AM52 °FClear.8 mph93%30.13 "Hg7 mi
3:53 AM53 °FClear.6 mph93%30.13 "Hg8 mi
2:53 AM56 °FClear.9 mph90%30.13 "Hg7 mi
1:53 AM55 °FClear.9 mph90%30.14 "Hg9 mi
Weather by CustomWeather, © 2016

See weather overviewHow to use our weather pages